Location: *
(51.0333°S, 178.4667°E)
Time: 19:30:43
(UTC+00:00)

Cosmos 1346 Rocket - Pass Details

Date: 15 November 2019
Orbit: 522 x 558 km, 81.2° (Epoch: 11 December)

Event Time Altitude Azimuth Distance (km) Brightness Sun altitude
Exits shadow 09:43:00 15° 342° (NNW) 1,519 4.7 -15.1°
Maximum altitude 09:46:15 77° 258° (WSW) 582 3.0 -15.3°
Drops below altitude 10° 09:50:24 10° 170° (S) 1,875 6.3 -15.7°
Sets 09:52:38 0° 168° (SSE) 2,783 7.2 -15.8°
